Search your local weather  

 
Advertise Here

Hazardous Weather Conditions

No active alerts for HOUSTON, TEXAS

Current Conditions: HOUSTON, TEXAS

Overcast


62.0 F

Last Updated on Nov 25 2020, 9:53 am CST
Humidity: 67%
Wind Speed: N 11.5 mph
Barometer 30.09 in
Dewpoint: 51.1 F
Visibility: 10.00 mi
Precip: --
Heat Index: NA
Wind Chill: 61 F
Current conditions at:

Houston, Hooks Memorial Airport, TX (KDWH)

Lat: 30.0675 Lon: -95.55611

Local Radar Image active severe weather and emergency alerts image image weather storm and storm spotter reports image weather observation monitoring service image
Local
Radar
Active
Alerts
Storm Reports Weather
Monitoring

5 Day Forecast for HOUSTON, TEXAS (77001)

Wednesday

Mostly Cloudy

High 76 °F
Wednesday
Night
Partly Cloudy

Low 56 °F
Thursday

Slight Chance of Rain
High 78 °F
Thursday
Night
Chance of T-storms

Low 68 °F
Friday

T-storms Likely
High 77 °F
Friday
Night
T-storms Likely

Low 62 °F
Saturday

T-storms Likely
High 69 °F
Saturday
Night
T-storms Likely
Low 52 °F
Sunday

Chance of Rain Showers
High 63 °F

Sign-up For Email & Text Message Weather Alert Notification Services


Advertise Here

Observation History for HOUSTON, TEXAS


Time Wind
(mph)
Vis
(mi)
Weather Precip (in) Temperature (F) Relative
Humidity
Wind
Chill
(F)
Heat
Index
(F)
Pressure
Air Dwpt altimeter
(in)
sea level
(mb)
9:53 am CST N 11.5 10.00 Overcast -- 62.0 51.1 67% 61 NA 30.09 1018.8
8:53 am CST NW 5.8 10.00 Overcast -- 62.0 55.0 78% 62 NA 30.08 1018.3
7:53 am CST N 8.1 10.00 Overcast -- 63.0 57.0 81% 63 NA 30.05 1017.4
6:53 am CST NW 5.8 10.00 Overcast -- 62.0 57.0 84% 62 NA 30.03 1016.8
5:53 am CST N 0.0 10.00 Overcast Trace 63.0 59.0 87% NA NA 30.00 1015.7
4:53 am CST NW 4.6 7.00 Light Rain 00.06 62.0 57.0 84% 62 NA 29.98 1014.8
3:53 am CST W 11.5 G 20.7 8.00 Light Rain 00.02 73.0 68.0 84% NA NA 29.94 1013.7
2:53 am CST S 8.1 10.00 Mostly Cloudy -- 73.0 68.0 84% NA NA 29.91 1012.5
1:53 am CST SW 4.6 10.00 Partly Cloudy -- 73.0 66.9 81% NA NA 29.90 1012.4
12:53 am CST S 9.2 10.00 A Few Clouds -- 72.0 66.9 84% NA NA 29.88 1011.5
11:53 pm CST S 9.2 10.00 Fair -- 72.0 66.9 84% NA NA 29.87 1011.3
10:53 pm CST S 6.9 10.00 Fair -- 73.0 66.9 81% NA NA 29.90 1012.2
9:53 pm CST S 5.8 10.00 Overcast -- 74.0 66.9 79% NA NA 29.91 1012.6
8:53 pm CST S 8.1 10.00 Mostly Cloudy -- 74.0 66.0 76% NA NA 29.90 1012.4
7:53 pm CST S 8.1 10.00 Mostly Cloudy -- 74.0 66.0 76% NA NA 29.89 1011.9
6:53 pm CST S 5.8 10.00 Partly Cloudy -- 74.0 64.9 74% NA NA 29.88 1011.6
5:53 pm CST S 10.4 G 19.6 10.00 A Few Clouds -- 74.0 64.9 74% NA NA 29.86 1011.1
4:53 pm CST SE 11.5 G 17.3 10.00 Mostly Cloudy Trace 77.0 64.9 66% NA NA 29.86 1011.0
3:53 pm CST S 10.4 G 23.0 9.00 Overcast Trace 77.0 64.9 66% NA NA 29.86 1010.8
2:53 pm CST S 5.8 10.00 Light Rain Trace 77.0 64.0 64% NA NA 29.87 1011.2
1:53 pm CST S 9.2 10.00 Light Rain Trace 78.0 63.0 60% NA NA 29.88 1011.8
12:53 pm CST S 11.5 G 21.9 10.00 Overcast -- 77.0 64.9 66% NA NA 29.90 1012.5
11:53 am CST SE 11.5 G 20.7 10.00 Overcast -- 75.0 66.0 74% NA NA 29.95 1013.9
10:53 am CST SE 8.1 8.00 Overcast -- 72.0 64.9 79% NA NA 29.99 1015.2

Regional Weather Observation

John Dunn Helistop, TX (KMCJ)

Overcast
64.0 F

Houston, Houston Hobby Airport, TX (KHOU)

Partly Cloudy
72.0 F

Conroe, Montgomery County Airport, TX (KCXO)

A Few Clouds
63.0 F

Houston Southwest Airport, TX (KAXH)

Overcast
69.0 F

Houston, Pearland Regional Airport, TX (KLVJ)

Mostly Cloudy
70.0 F

Cleveland, TX (K6R3)

Overcast with Haze
64.0 F
Advertise Here

Advertise Here